GW1238 Weather Reports


time (UTC)temp
F
wind
direction
speed
knots
gust
knots
rain 1hr
in
rain 24hr
in
rain mn
in
humidity
%
barometer
mb
20260906193011 92 116 2.6 3.5 0.00 0.00 0.00 66 1013.3
20260906192506 91 119 2.6 2.6 0.00 0.00 0.00 66 1013.4
20260906192005 91 116 2.6 2.6 0.00 0.00 0.00 68 1013.6
20260906191500 92 94 2.6 5.2 0.00 0.00 0.00 66 1013.5
20260906190959 91 99 3.5 3.5 0.00 0.00 0.00 69 1013.7
20260906190458 92 99 3.5 5.2 0.00 0.00 0.00 63 1013.8
20260906185953 91 128 2.6 2.6 0.00 0.00 0.00 67 1014.1
20260906185452 91 118 2.6 3.5 0.00 0.00 0.00 68 1014.1
20260906184952 91 108 3.5 3.5 0.00 0.00 0.00 67 1014.4
20260906184447 91 109 3.5 3.5 0.00 0.00 0.00 66 1014.4
20260906183942 91 123 2.6 2.6 0.00 0.00 0.00 66 1014.4
20260906183438 91 120 2.6 2.6 0.00 0.00 0.00 70 1014.0
20260906182934 90 128 1.7 2.6 0.00 0.00 0.00 69 1014.4
20260906182429 91 120 1.7 1.7 0.00 0.00 0.00 66 1014.4
20260906181925 90 143 2.6 3.5 0.00 0.00 0.00 69 1014.7
20260906181421 90 123 1.7 2.6 0.00 0.00 0.00 65 1014.7
20260906180916 90 134 1.7 2.6 0.00 0.00 0.00 66 1014.6
20260906180411 89 116 2.6 2.6 0.00 0.00 0.00 69 1014.7
20260906175909 89 117 1.7 2.6 0.00 0.00 0.00 68 1014.9
20260906175404 89 117 1.7 2.6 0.00 0.00 0.00 72 1015.0
20260906174902 89 106 1.7 3.5 0.00 0.00 0.00 68 1014.9
20260906174402 89 114 1.7 2.6 0.00 0.00 0.00 68 1015.3
20260906173857 89 90 1.7 2.6 0.00 0.00 0.00 68 1015.2
20260906173353 89 106 2.6 2.6 0.00 0.00 0.00 70 1015.3
20260906172851 88 107 2.6 2.6 0.00 0.00 0.00 68 1015.4
20260906172348 89 126 1.7 1.7 0.00 0.00 0.00 72 1015.5
20260906171843 88 115 1.7 1.7 0.00 0.00 0.00 68 1015.5
20260906171337 88 132 1.7 1.7 0.00 0.00 0.00 71 1015.4
20260906170833 88 141 1.7 1.7 0.00 0.00 0.00 69 1015.4
20260906170329 88 135 1.7 1.7 0.00 0.00 0.00 72 1015.7
20260906165825 88 135 1.7 1.7 0.00 0.00 0.00 68 1015.4
20260906165324 87 118 1.7 1.7 0.00 0.00 0.00 67 1015.7
20260906164819 87 115 1.7 1.7 0.00 0.00 0.00 71 1015.8
20260906164319 87 115 0.9 1.7 0.00 0.00 0.00 68 1015.9
20260906163815 87 108 0.9 1.7 0.00 0.00 0.00 68 1015.8
20260906163311 87 114 1.7 2.6 0.00 0.00 0.00 67 1015.9
20260906162808 87 121 1.7 2.6 0.00 0.00 0.00 73 1016.0
20260906162307 86 103 2.6 2.6 0.00 0.00 0.00 71 1016.1
20260906161802 87 99 1.7 1.7 0.00 0.00 0.00 72 1015.9
20260906161301 86 112 1.7 2.6 0.00 0.00 0.00 71 1016.0
20260906160800 86 119 1.7 2.6 0.00 0.00 0.00 72 1016.0
20260906160255 86 101 2.6 2.6 0.00 0.00 0.00 74 1016.2
20260906155753 85 118 1.7 3.5 0.00 0.00 0.00 71 1016.2
20260906155247 86 123 1.7 1.7 0.00 0.00 0.00 73 1016.2
20260906154743 85 133 0.9 2.6 0.00 0.00 0.00 69 1016.1
20260906154238 85 112 1.7 3.5 0.00 0.00 0.00 68 1016.1
20260906153736 85 98 1.7 2.6 0.00 0.00 0.00 70 1016.2
20260906153232 85 109 1.7 2.6 0.00 0.00 0.00 71 1016.1
20260906152727 85 95 2.6 3.5 0.00 0.00 0.00 72 1016.1
20260906152226 85 119 0.9 2.6 0.00 0.00 0.00 75 1016.2
20260906151726 85 113 0.9 1.7 0.00 0.00 0.00 73 1016.2
20260906151222 85 126 0.0 0.9 0.00 0.00 0.00 73 1016.2
20260906150718 84 107 0.9 1.7 0.00 0.00 0.00 74 1016.0
20260906150212 84 113 0.9 1.7 0.00 0.00 0.00 75 1016.0
20260906145712 84 122 0.9 1.7 0.00 0.00 0.00 77 1016.0
20260906145211 84 113 1.7 2.6 0.00 0.00 0.00 73 1016.2
20260906144706 84 117 0.9 1.7 0.00 0.00 0.00 73 1016.2
20260906144201 84 143 0.9 2.6 0.00 0.00 0.00 75 1016.3
20260906143700 84 135 1.7 2.6 0.00 0.00 0.00 74 1016.2
20260906143157 84 127 1.7 1.7 0.00 0.00 0.00 72 1016.4
20260906142652 85 141 0.9 1.7 0.00 0.00 0.00 71 1016.3
20260906142147 86 182 1.7 1.7 0.00 0.00 0.00 73 1016.2
20260906141646 85 177 1.7 2.6 0.00 0.00 0.00 73 1016.3
20260906141141 84 182 2.6 3.5 0.00 0.00 0.00 76 1016.2
20260906140639 83 197 2.6 2.6 0.00 0.00 0.00 77 1016.4
20260906140134 83 204 2.6 3.5 0.00 0.00 0.00 77 1016.2
20260906135631 83 205 2.6 2.6 0.00 0.00 0.00 77 1016.2
20260906135128 83 201 2.6 2.6 0.00 0.00 0.00 77 1016.4
20260906134623 83 197 1.7 3.5 0.00 0.00 0.00 79 1016.3
20260906134118 83 212 1.7 1.7 0.00 0.00 0.00 78 1016.6
20260906133615 83 200 1.7 2.6 0.00 0.00 0.00 78 1016.4
20260906133114 84 183 1.7 1.7 0.00 0.00 0.00 77 1016.3
20260906132609 85 170 1.7 1.7 0.00 0.00 0.00 77 1016.5
20260906132105 84 128 0.0 0.9 0.00 0.00 0.00 77 1016.4
20260906131600 83 164 0.9 0.9 0.00 0.00 0.00 80 1016.5
20260906131056 83 152 0.0 1.7 0.00 0.00 0.00 80 1016.4
20260906130555 82 190 1.7 1.7 0.00 0.00 0.00 81 1016.6
20260906130051 81 177 0.9 1.7 0.00 0.00 0.00 83 1016.7
20260906125548 80 211 2.6 2.6 0.00 0.00 0.00 83 1016.4
20260906125048 80 204 1.7 2.6 0.00 0.00 0.00 83 1016.6
20260906124544 79 231 0.9 0.9 0.00 0.00 0.00 87 1016.5
20260906124039 78 59 0.0 1.7 0.00 0.00 0.00 89 1016.4
20260906123538 77 280 0.9 1.7 0.00 0.00 0.00 91 1016.4
20260906123033 76 77 0.0 0.9 0.00 0.00 0.00 93 1016.3
20260906122526 76 2 0.9 1.7 0.00 0.00 0.00 94 1016.6
20260906122023 76 133 0.0 0.9 0.00 0.00 0.00 94 1016.3
20260906121519 74 97 0.0 0.9 0.00 0.00 0.00 95 1016.3
20260906121016 74 31 0.0 0.9 0.00 0.00 0.00 95 1016.1
20260906120515 74 348 0.9 0.9 0.00 0.00 0.00 95 1016.1
20260906120014 74 25 0.0 1.7 0.00 0.00 0.00 95 1016.2
20260906115508 74 335 0.9 1.7 0.00 0.00 0.00 95 1016.1
20260906115008 74 354 0.9 1.7 0.00 0.00 0.00 95 1016.2
20260906114503 74 339 1.7 1.7 0.00 0.00 0.00 95 1016.0
20260906113959 74 348 0.9 1.7 0.00 0.00 0.00 95 1016.0
20260906113457 74 326 1.7 2.6 0.00 0.00 0.00 94 1015.9
20260906112953 74 353 0.9 0.9 0.00 0.00 0.00 94 1015.8
20260906112448 74 31 0.9 0.9 0.00 0.00 0.00 94 1015.6
20260906111944 74 344 0.9 1.7 0.00 0.00 0.00 94 1015.7
20260906111443 75 16 0.9 1.7 0.00 0.00 0.00 94 1015.7
20260906110938 75 352 0.9 1.7 0.00 0.00 0.00 94 1015.6
20260906110433 75 341 0.9 1.7 0.00 0.00 0.00 93 1015.6
20260906105932 75 340 0.9 1.7 0.00 0.00 0.00 93 1015.3
20260906105428 75 341 0.9 1.7 0.00 0.00 0.00 92 1015.4
20260906104924 76 320 0.9 1.7 0.00 0.00 0.00 92 1015.0
20260906104422 76 338 0.9 1.7 0.00 0.00 0.00 91 1015.1
20260906103921 76 345 1.7 1.7 0.00 0.00 0.00 92 1015.3
20260906103419 76 352 0.9 2.6 0.00 0.00 0.00 91 1015.2
20260906102915 76 312 0.9 0.9 0.00 0.00 0.00 90 1015.3
20260906102414 76 88 0.9 0.9 0.00 0.00 0.00 90 1015.3
20260906101909 76 350 0.9 1.7 0.00 0.00 0.00 91 1015.3
20260906101404 76 7 0.9 1.7 0.00 0.00 0.00 91 1015.1
20260906100900 76 327 0.9 0.9 0.00 0.00 0.00 91 1015.2
20260906100359 76 358 0.0 0.9 0.00 0.00 0.00 89 1015.3
20260906095855 77 4 0.0 0.0 0.00 0.00 0.00 89 1015.3
20260906095350 77 49 0.0 0.0 0.00 0.00 0.00 88 1015.1
20260906094849 77 8 0.0 0.9 0.00 0.00 0.00 88 1015.3
20260906094344 77 336 0.9 1.7 0.00 0.00 0.00 88 1015.4
20260906093841 77 333 1.7 1.7 0.00 0.00 0.00 87 1015.3
20260906093336 77 318 0.9 0.9 0.00 0.00 0.00 86 1015.4
20260906092831 78 162 0.0 0.0 0.00 0.00 0.00 86 1015.5
20260906092331 78 212 0.0 0.9 0.00 0.00 0.00 85 1015.4
20260906091827 78 200 0.0 0.9 0.00 0.00 0.00 85 1015.7
20260906091323 78 140 0.0 0.0 0.00 0.00 0.00 85 1015.6
20260906090819 78 300 0.9 0.9 0.00 0.00 0.00 85 1015.7
20260906090318 78 95 0.0 0.9 0.00 0.00 0.00 84 1015.7
20260906085818 78 303 1.7 2.6 0.00 0.00 0.00 84 1015.6
20260906085311 78 356 0.9 1.7 0.00 0.00 0.00 84 1015.7
20260906084807 78 87 0.0 1.7 0.00 0.00 0.00 84 1015.7
20260906084306 78 113 0.0 1.7 0.00 0.00 0.00 85 1016.0
20260906083800 78 51 0.0 0.9 0.00 0.00 0.00 87 1016.0
20260906083256 77 307 0.9 2.6 0.00 0.00 0.00 88 1016.3
20260906082751 76 114 0.9 2.6 0.00 0.00 0.00 90 1016.1
20260906082246 76 359 0.9 1.7 0.00 0.00 0.00 93 1016.0
20260906081742 76 51 0.0 1.7 0.00 0.00 0.00 94 1016.1
20260906081237 76 12 0.9 1.7 0.00 0.00 0.00 94 1016.0
20260906080734 76 334 1.7 1.7 0.00 0.00 0.00 94 1015.8
20260906080230 76 348 0.9 1.7 0.00 0.00 0.00 94 1016.0
20260906075729 76 20 0.9 1.7 0.00 0.00 0.00 94 1015.9
20260906075224 76 340 0.9 0.9 0.00 0.00 0.00 94 1015.7
20260906074720 76 67 0.0 0.9 0.00 0.00 0.00 94 1015.6
20260906074219 76 330 0.9 1.7 0.00 0.00 0.00 93 1015.4
20260906073719 77 0 0.9 0.9 0.00 0.00 0.00 93 1015.2
20260906073214 76 149 0.0 0.0 0.00 0.00 0.00 93 1015.1
20260906072710 76 119 0.0 0.0 0.00 0.00 0.00 93 1015.1
20260906072205 76 146 0.0 0.0 0.00 0.00 0.00 93 1015.5
20260906071701 76 45 0.9 0.9 0.00 0.00 0.00 93 1015.2
20260906071200 76 29 0.0 0.9 0.00 0.00 0.00 93 1015.2
20260906070657 76 343 1.7 1.7 0.00 0.00 0.00 93 1015.6
20260906070153 76 258 0.0 1.7 0.00 0.00 0.00 93 1015.8
20260906065652 76 356 0.0 2.6 0.00 0.00 0.00 94 1016.1
20260906065148 76 326 1.7 5.2 0.00 0.00 0.00 96 1016.1
20260906064643 76 337 2.6 2.6 0.00 0.00 0.00 96 1015.6
20260906064139 76 331 0.9 1.7 0.00 0.00 0.00 97 1015.7
20260906063639 75 341 1.7 1.7 0.00 0.00 0.00 96 1015.8
20260906063134 75 343 0.9 0.9 0.00 0.00 0.00 96 1015.8
20260906062630 75 6 0.9 1.7 0.00 0.00 0.00 96 1015.8
20260906062129 75 327 0.9 1.7 0.00 0.00 0.00 96 1016.0
20260906061625 75 338 1.7 1.7 0.00 0.00 0.00 96 1016.1
20260906061125 75 336 0.9 1.7 0.00 0.00 0.00 96 1015.9
20260906060621 75 346 0.9 0.9 0.00 0.00 0.00 96 1015.7
20260906060119 75 358 0.0 0.9 0.00 0.00 0.00 96 1015.8
20260906055614 75 338 1.7 2.6 0.00 0.00 0.00 96 1015.6
20260906055109 75 329 1.7 1.7 0.00 0.00 0.00 96 1015.6
20260906054610 75 352 0.9 0.9 0.00 0.00 0.00 96 1015.7
20260906054105 75 28 0.0 0.9 0.00 0.00 0.00 96 1015.6
20260906053601 75 336 0.9 1.7 0.00 0.00 0.00 96 1015.7
20260906053057 75 341 1.7 1.7 0.00 0.00 0.00 95 1015.6
20260906052552 75 354 1.7 1.7 0.00 0.00 0.00 95 1015.5
20260906052049 75 337 0.9 1.7 0.00 0.00 0.00 95 1015.6
20260906051545 75 334 1.7 1.7 0.00 0.00 0.00 95 1015.7
20260906051040 75 339 0.9 1.7 0.00 0.00 0.00 95 1015.7
20260906050535 75 351 0.9 1.7 0.00 0.00 0.00 95 1015.6
20260906050030 75 336 0.9 2.6 0.00 0.00 0.00 94 1015.8
20260906045528 75 329 1.7 1.7 0.00 0.00 0.00 94 1015.9
20260906045024 75 342 0.9 2.6 0.00 0.00 0.00 94 1015.8
20260906044519 75 341 0.9 1.7 0.00 0.00 0.00 94 1015.9
20260906044015 75 347 1.7 1.7 0.00 0.00 0.00 94 1016.2
20260906043510 75 342 1.7 2.6 0.00 0.00 0.00 94 1016.2
20260906043007 76 357 1.7 1.7 0.00 0.00 0.00 93 1016.0
20260906042505 75 341 1.7 1.7 0.00 0.00 0.00 93 1016.3
20260906042005 76 350 0.9 1.7 0.00 0.00 0.00 93 1016.1
20260906041502 76 341 0.9 0.9 0.00 0.00 0.00 93 1016.2
20260906041001 76 354 0.9 1.7 0.00 0.00 0.00 93 1016.2
20260906040456 76 342 1.7 2.6 0.00 0.00 0.00 94 1016.0
20260906035951 76 344 0.9 1.7 0.00 0.00 0.00 93 1016.2
20260906035447 76 336 0.9 1.7 0.00 0.00 0.00 93 1016.1
20260906034943 76 17 0.9 0.9 0.00 0.00 0.00 93 1016.1
20260906034442 76 349 0.9 1.7 0.00 0.00 0.00 93 1016.1
20260906033938 76 344 0.9 0.9 0.00 0.00 0.00 93 1016.0
20260906033438 76 343 0.9 1.7 0.00 0.00 0.00 92 1016.4
20260906032934 76 344 0.9 1.7 0.00 0.00 0.00 92 1016.3
20260906032431 76 330 1.7 1.7 0.00 0.00 0.00 91 1016.1
20260906031930 77 355 0.9 1.7 0.00 0.00 0.00 92 1016.3
20260906031426 77 329 0.9 0.9 0.00 0.00 0.00 92 1016.2
20260906030921 77 5 0.9 1.7 0.00 0.00 0.00 92 1016.2
20260906030415 77 331 0.9 1.7 0.00 0.00 0.00 92 1016.4
20260906025910 77 348 0.9 1.7 0.00 0.00 0.00 91 1016.4
20260906025404 77 344 1.7 1.7 0.00 0.00 0.00 91 1016.4
20260906024903 77 344 1.7 1.7 0.00 0.00 0.00 92 1016.2
20260906024402 77 341 1.7 2.6 0.00 0.00 0.00 91 1016.0
20260906023858 77 332 0.9 1.7 0.00 0.00 0.00 91 1015.7
20260906023355 77 333 0.9 1.7 0.00 0.00 0.00 91 1015.7
20260906022854 77 335 0.9 1.7 0.00 0.00 0.00 90 1015.7
20260906022349 77 15 0.0 0.9 0.00 0.00 0.00 90 1015.7
20260906021845 77 335 0.9 1.7 0.00 0.00 0.00 90 1015.6
20260906021344 77 351 0.9 1.7 0.00 0.00 0.00 90 1015.5
20260906020839 77 341 0.9 1.7 0.00 0.00 0.00 90 1015.6
20260906020338 77 341 1.7 1.7 0.00 0.00 0.00 90 1015.5
20260906015833 77 337 1.7 2.6 0.00 0.00 0.00 89 1015.7
20260906015332 77 336 1.7 1.7 0.00 0.00 0.00 89 1015.6
20260906014832 77 341 1.7 1.7 0.00 0.00 0.00 89 1015.6
20260906014327 77 341 1.7 1.7 0.00 0.00 0.00 88 1015.3
20260906013824 78 340 1.7 1.7 0.00 0.00 0.00 88 1015.5
20260906013319 78 332 1.7 1.7 0.00 0.00 0.00 88 1015.4
20260906012814 78 325 0.9 1.7 0.00 0.00 0.00 88 1015.3
20260906012314 77 341 1.7 2.6 0.00 0.00 0.00 88 1015.1
20260906011809 78 334 1.7 1.7 0.00 0.00 0.00 88 1015.4
20260906011309 78 340 0.9 2.6 0.00 0.00 0.00 88 1015.3
20260906010806 78 344 0.9 1.7 0.00 0.00 0.00 86 1015.3
20260906010301 79 0 0.9 1.7 0.00 0.00 0.00 87 1015.3
20260906005756 79 332 0.9 1.7 0.00 0.00 0.00 86 1015.0
20260906005255 79 339 0.9 1.7 0.00 0.00 0.00 86 1015.2
20260906004754 79 336 0.9 1.7 0.00 0.00 0.00 85 1014.8
20260906004249 79 327 1.7 1.7 0.00 0.00 0.00 85 1015.1
20260906003749 80 35 0.0 0.9 0.00 0.00 0.00 85 1014.8
20260906003245 79 334 0.9 1.7 0.00 0.00 0.00 85 1014.7
20260906002741 80 335 1.7 1.7 0.00 0.00 0.00 85 1014.6
20260906002240 80 334 1.7 1.7 0.00 0.00 0.00 85 1015.0
20260906001736 80 335 1.7 1.7 0.00 0.00 0.00 84 1015.0
20260906001230 80 14 1.7 1.7 0.00 0.00 0.00 84 1014.8
20260906000726 80 353 0.9 1.7 0.00 0.00 0.00 82 1014.6
20260906000227 81 345 0.9 1.7 0.00 0.00 0.00 82 1014.9
20260905235726 82 5 0.0 0.0 0.00 0.00 0.00 81 1015.0
20260905235221 82 31 0.9 0.9 0.00 0.00 0.00 79 1015.1
20260905234717 82 346 0.9 1.7 0.00 0.00 0.00 79 1015.0
20260905234212 83 319 0.9 0.9 0.00 0.00 0.00 79 1014.8
20260905233713 84 14 0.9 0.9 0.00 0.00 0.00 77 1014.9
20260905233212 84 155 0.0 0.9 0.00 0.00 0.00 76 1015.1
20260905232707 83 329 0.9 1.7 0.00 0.00 0.00 76 1015.3
20260905232202 84 336 0.9 0.9 0.00 0.00 0.00 75 1015.0
20260905231658 84 35 0.9 0.9 0.00 0.00 0.00 75 1014.6
20260905231154 84 6 0.0 0.9 0.00 0.00 0.00 76 1014.7
20260905230649 84 89 0.0 0.9 0.00 0.00 0.00 76 1014.5
20260905230147 84 68 0.0 0.0 0.00 0.00 0.00 74 1014.5
20260905225647 85 352 0.9 1.7 0.00 0.00 0.00 75 1014.6
20260905225142 85 116 0.0 1.7 0.00 0.00 0.00 74 1014.8
20260905224642 85 108 1.7 1.7 0.00 0.00 0.00 72 1014.7
20260905224141 85 16 0.0 1.7 0.00 0.00 0.00 70 1014.5
20260905223639 85 328 0.9 1.7 0.00 0.00 0.00 73 1014.7
20260905223135 85 330 1.7 1.7 0.00 0.00 0.00 73 1014.5
20260905222630 86 102 0.0 0.0 0.00 0.00 0.00 70 1014.6
20260905222125 85 330 0.9 0.9 0.00 0.00 0.00 72 1015.1
20260905221621 85 43 0.0 0.9 0.00 0.00 0.00 71 1015.1
20260905221118 86 343 0.9 1.7 0.00 0.00 0.00 69 1015.0
20260905220613 86 88 0.0 0.9 0.00 0.00 0.00 67 1015.3
20260905220109 86 149 0.0 0.9 0.00 0.00 0.00 67 1015.1
20260905215608 86 88 2.6 2.6 0.00 0.00 0.00 69 1015.2
20260905215104 86 117 1.7 3.5 0.00 0.00 0.00 69 1015.2
20260905214600 86 109 2.6 3.5 0.00 0.00 0.00 68 1015.5
20260905214100 87 354 1.7 2.6 0.00 0.00 0.00 67 1015.5
20260905213555 87 103 0.0 1.7 0.00 0.00 0.00 69 1015.5
20260905213051 86 117 0.9 1.7 0.00 0.00 0.00 70 1015.6
20260905212551 86 119 1.7 1.7 0.00 0.00 0.00 71 1015.6
20260905212050 86 113 0.9 2.6 0.00 0.00 0.00 71 1015.5
20260905211546 85 111 1.7 3.5 0.00 0.00 0.00 72 1015.5
20260905211041 85 108 2.6 6.1 0.00 0.00 0.00 74 1015.7
20260905210537 84 114 2.6 3.5 0.00 0.00 0.00 76 1015.4
20260905210032 84 97 1.7 1.7 0.00 0.00 0.00 76 1015.6
20260905205531 83 7 0.0 1.7 0.00 0.00 0.00 79 1015.7
20260905205030 83 113 1.7 2.6 0.00 0.00 0.00 77 1015.9
20260905204525 83 291 1.7 2.6 0.00 0.00 0.00 77 1015.5
20260905204021 83 59 1.7 2.6 0.00 0.00 0.00 78 1015.7
20260905203520 83 101 2.6 2.6 0.00 0.00 0.00 82 1015.9
20260905203016 83 312 2.6 3.5 0.00 0.00 0.00 79 1015.4
20260905202511 84 96 1.7 3.5 0.00 0.00 0.00 75 1015.5
20260905202006 85 316 1.7 1.7 0.00 0.00 0.00 72 1015.2
20260905201502 84 306 1.7 2.6 0.00 0.00 0.00 76 1015.2
20260905201001 83 358 0.9 3.5 0.00 0.00 0.00 78 1015.6
20260905200457 84 49 1.7 6.1 0.00 0.00 0.00 75 1015.7
20260905195955 85 320 5.2 7.0 0.00 0.00 0.00 75 1015.6
20260905195450 86 141 2.6 6.1 0.00 0.00 0.00 73 1015.9
20260905194946 93 82 5.2 6.1 0.00 0.00 0.00 64 1015.7
20260905194445 96 143 0.9 1.7 0.00 0.00 0.00 54 1015.2
20260905193940 98 179 0.9 1.7 0.00 0.00 0.00 53 1015.3